Location: Buffign�court
(47.8126°N, 6.0176°E)
Time: 15:14:08
(UTC+00:00)

Cosmos 1605 Rocket - Pass Details

Date: 16 June 2021
Orbit: 944 x 1006 km, 82.9° (Epoch: 31 July)

Event Time Altitude Azimuth Distance (km) Brightness Sun altitude
Rises 20:29:41 0° 348° (NNW) 3,748 8.2 -7.4°
Reaches altitude 10° 20:32:15 10° 346° (NNW) 2,793 7.5 -7.7°
Maximum altitude 20:38:36 65° 267° (W) 1,102 4.5 -8.4°
Drops below altitude 10° 20:44:51 10° 187° (S) 2,756 6.0 -9.0°
Enters shadow 20:47:18 - 184° (S) 3,667 6.6 -9.3°
